Current weather by "City, St" or "zip code"  
 

Current Conditions: New Orleans, New Orleans International Airport, LA

Overcast


66.0 F

Last Updated on Oct 24 2020, 9:53 pm CDT
Humidity: 78%
Wind Speed: N 9.2 mph
Barometer 29.97 in
Dewpoint: 59.0 F
Visibility: 10.00 mi
Precip: --
Heat Index: NA
Wind Chill: NA
Current conditions at:

New Orleans, New Orleans International Airport, LA (KMSY)

Lat: 29.99278 Lon: 90.25083

Local Radar Image active severe weather and emergency alerts image image weather storm and storm spotter reports image weather observation monitoring service image
Local
Radar
Active
Alerts
Storm Reports Obs
Monitoring

Sign-up For Email & Text Message Weather Alert Notification Services



Advertise Here

Observation History for New Orleans, New Orleans International Airport, LA


Time Wind
(mph)
Vis
(mi)
Weather Precip (in) Temperature (F) Relative
Humidity
Wind
Chill
(F)
Heat
Index
(F)
Pressure
Air Dwpt altimeter
(in)
sea level
(mb)
Rmks
9:53 pm CDT N 9.2 10.00 Overcast -- 66.0 59.0 78% NA NA 29.97 1015.0
8:53 pm CDT N 10.4 10.00 Overcast -- 67.0 61.0 81% NA NA 29.96 1014.9
7:53 pm CDT NW 10.4 10.00 Overcast -- 68.0 62.1 81% NA NA 29.95 1014.6
6:53 pm CDT NW 9.2 G 19.6 10.00 Mostly Cloudy -- 69.0 63.0 81% NA NA 29.93 1013.8
5:53 pm CDT NW 12.7 10.00 A Few Clouds -- 72.0 64.0 76% NA NA 29.92 1013.3
4:53 pm CDT NW 12.7 10.00 Partly Cloudy -- 77.0 66.0 69% NA NA 29.89 1012.6
3:53 pm CDT NW 9.2 10.00 Partly Cloudy -- 79.0 66.0 65% NA NA 29.88 1012.3
2:53 pm CDT NW 8.1 10.00 Mostly Cloudy -- 79.0 66.0 65% NA NA 29.90 1012.7
1:53 pm CDT N 8.1 10.00 Partly Cloudy -- 79.0 66.9 67% NA NA 29.92 1013.3
12:53 pm CDT N 10.4 10.00 Mostly Cloudy -- 77.0 68.0 74% NA NA 29.95 1014.4
11:53 am CDT N 6.9 10.00 Mostly Cloudy -- 76.0 69.1 79% NA NA 29.98 1015.4
10:53 am CDT N 10.4 10.00 Overcast -- 74.0 69.1 85% NA NA 30.00 1016.1
9:53 am CDT N 8.1 10.00 Overcast -- 74.0 69.1 85% NA NA 30.00 1016.1
8:53 am CDT N 5.8 10.00 Overcast -- 73.0 69.1 87% NA NA 29.99 1015.8
7:53 am CDT NW 9.2 10.00 Overcast -- 73.0 69.1 87% NA NA 29.97 1015.3
6:53 am CDT NW 6.9 10.00 Mostly Cloudy -- 73.0 70.0 90% NA NA 29.95 1014.6
5:53 am CDT NW 5.8 10.00 Mostly Cloudy -- 73.0 70.0 90% NA NA 29.95 1014.4
4:53 am CDT NW 6.9 10.00 Overcast -- 74.0 71.1 91% NA NA 29.94 1014.2
3:53 am CDT NW 6.9 8.00 Overcast -- 75.0 72.0 90% NA NA 29.95 1014.3
2:53 am CDT N 3.5 10.00 Overcast -- 75.0 73.0 94% NA NA 29.96 1015.0
1:53 am CDT N 0.0 9.00 Mostly Cloudy -- 74.0 72.0 94% NA NA 29.96 1014.8
12:53 am CDT N 0.0 7.00 Mostly Cloudy -- 74.0 72.0 94% NA NA 29.97 1015.0
11:53 pm CDT N 0.0 6.00 Fog/Mist Trace 74.0 72.0 94% NA NA 29.97 1015.0
10:53 pm CDT N 4.6 10.00 Light Rain Trace 76.0 73.0 91% NA NA 29.98 1015.4

Regional Weather Observation


New Orleans, New Orleans Lakefront Airport, LA (KNEW)

Overcast
68.0 F

Hammond, Hammond Municipal Airport, LA (KHDC)

Overcast
59.0 F

New Orleans Naval Air Station - Alvin Callender Field, LA (KNBG)

Overcast
66.0 F

Houma-Terrebonne Airport, LA (KHUM)

Mostly Cloudy
64.0 F

Galliano, South Lafourche Airport, LA (KGAO)

Overcast
66.0 F

Baton Rouge, Baton Rouge Metropolitan, Ryan Field, LA (KBTR)

Overcast
59.0 F